Location: Kitchener-Waterloo
(43.4500°N, 80.5000°W)
Time: 16:54:04
(UTC-04:00)

Daily predictions for brighter satellites

Satellite Brightness Start Highest point End
(mag) Time Altitude Azimuth Time Altitude Azimuth Time Altitude Azimuth
ATLAS CENTAUR R/B 4.2 19:27:36 10° S 19:32:14 34° ESE 19:43:58 10° NE
Abrixas rocket 4.3 19:37:32 10° W 19:40:22 25° SW 19:43:10 10° SSE
NOSS 3-2 (C) 4.4 19:38:20 10° SSE 19:43:04 24° ESE 19:48:05 10° ENE
Meteor 1-22 Rocket 4.5 19:38:15 10° SSE 19:43:14 40° E 19:48:09 10° NNE
Cosmos 1437 3.1 19:41:21 10° N 19:44:31 44° ENE 19:47:39 10° SSE
Cosmos 1371 Rocket 4.0 19:39:19 10° NNW 19:44:35 68° ENE 19:49:53 10° SSE
Meteor 2-5 Rocket 3.8 19:40:38 10° N 19:46:20 88° W 19:51:54 10° S
Resurs 01 Rocket 2.2 19:42:15 10° SE 19:46:22 39° ENE 19:50:31 10° N
SAR-Lupe-1 4.0 19:43:12 10° SSE 19:46:45 76° ENE 19:50:20 10° N
Okean 3 Rocket 3.7 19:45:25 10° N 19:49:54 57° E 19:54:23 10° SSE
H-2A R/B 4.4 19:48:41 10° ESE 19:51:15 17° ENE 19:53:49 10° NNE
Cosmos 1441 Rocket 3.3 19:48:11 10° NNW 19:51:57 80° W 19:55:40 10° S
Resurs 1-3 4.3 19:48:56 10° SE 19:52:55 35° ENE 19:56:54 10° N
Cosmos 2219 Rocket 2.9 19:48:06 10° SW 19:53:40 61° WNW 19:59:17 10° NNE
Helios 1B rocket 3.0 19:50:03 10° NNE 19:53:49 34° E 19:57:35 10° SSE
ALOS 3.2 19:50:06 10° SE 19:54:01 27° ENE 19:57:56 10° N
Cosmos 2278 Rocket 2.5 19:48:38 10° NNW 19:54:18 76° WSW 19:59:56 10° SSE
Meteor 1-24 Rocket 3.7 19:49:18 10° N 19:55:00 65° ENE 20:00:27 10° SSE
Aureole 2 Rocket 3.6 19:52:15 10° SSE 19:56:14 35° ESE 20:00:12 10° NE
Cosmos 2297 3.8 19:51:05 10° NNW 19:56:44 59° ENE 20:02:16 10° SE
SJ-6B 2.8 19:53:01 10° SSE 19:56:57 89° ENE 20:01:01 10° NNW
FREGAT/IRIS 2.6 19:54:09 10° SSE 19:57:14 69° ENE 20:00:19 10° N
Meteor 1-28 Rocket 3.1 19:56:46 10° NNE 20:00:30 74° E 20:04:12 10° S
Cosmos 1707 3.1 19:57:14 10° NNW 20:01:04 69° W 20:04:54 10° S
Cosmos 1624 Rocket 3.9 19:57:39 10° NNW 20:02:55 79° ENE 20:08:06 10° SSE
Cosmos 1378 3.2 20:02:08 10° N 20:05:50 56° E 20:09:29 10° SSE
METEOR-M 4.1 20:01:05 10° SSE 20:06:24 73° ENE 20:11:46 10° N
FENGYUN 3A 4.1 20:05:22 10° SE 20:10:21 41° ENE 20:15:23 10° N
Cosmos 2369 Rocket 3.9 20:10:47 10° N 20:14:06 16° NE 20:16:33 12° ENE
Meteor 1-29 3.2 20:11:40 10° NNE 20:15:06 47° E 20:18:29 10° S
Cosmos 1544 4.5 20:15:08 18° ESE 20:15:49 19° E 20:18:32 10° NE
CZ-4C R/B 2.6 20:10:59 10° SW 20:16:18 68° NW 20:22:22 10° NNE
HJ-1C 3.3 20:14:58 10° SSE 20:18:19 89° E 20:21:43 10° NNW
ATLAS CENTAUR R/B 1.7 20:14:23 10° NW 20:18:37 65° WSW 20:22:29 10° SSE
FengYun 1-2 T 4.2 20:15:16 10° SSE 20:20:45 69° ENE 20:26:13 10° N
USA 215 3.2 20:14:58 10° NE 20:21:33 86° SE 20:28:06 10° SW
Cosmos 2333 Rocket 3.4 20:19:14 10° SW 20:24:46 47° WNW 20:30:21 10° NNE
Atlas Centaur 2 4.2 20:19:02 10° WSW 20:26:03 29° S 20:31:49 12° SE
Cosmos 1943 Rocket 4.3 20:28:42 10° NNE 20:29:14 10° NE 20:29:46 10° NE
Meteor 1-21 Rocket 4.4 20:25:44 10° N 20:31:09 50° ENE 20:36:13 12° SSE
Cosmos 1452 Rocket 3.6 20:26:52 10° NNW 20:32:04 57° ENE 20:36:02 17° SE
USA 186 3.6 20:36:59 12° NNE 20:36:59 12° NNE 20:37:17 10° NNE
ERS-1 Rocket 4.1 20:34:26 22° E 20:35:31 24° ENE 20:39:28 10° NNE
Cosmos 2034 Rocket 3.9 20:31:00 10° S 20:37:10 67° E 20:43:27 10° NNE
Helios 1A 3.4 20:33:30 10° S 20:37:39 66° WSW 20:41:50 10° NNW
Cosmos 1464 Rocket 4.0 20:34:48 10° S 20:41:05 86° W 20:47:19 10° N
Meteor 2-12 Rocket 4.4 20:36:41 10° S 20:42:43 62° E 20:48:47 10° NNE
ATLAS 3B R/B 4.4 20:37:18 10° WSW 20:44:08 35° NW 20:50:46 10° NNE
SeaSat 1 2.6 20:40:28 10° NE 20:45:14 47° ESE 20:49:58 10° S
Cosmos 1766 4.3 20:43:29 10° SSW 20:47:19 48° WNW 20:51:12 10° N
Cosmos 1674 3.5 20:44:37 10° N 20:47:51 33° ENE 20:47:51 33° ENE
Cosmos 1766 Rocket 3.6 20:44:33 10° N 20:48:58 79° W 20:53:19 10° S
In-Cosmos 22 4.3 20:43:39 10° N 20:49:27 86° W 20:55:13 10° S
Cosmos 1346 4.0 20:51:49 10° N 20:53:52 36° NNE 20:53:52 36° NNE
Cosmos 2237 Rocket 4.0 20:50:50 10° WSW 20:55:55 32° NW 21:01:01 10° N
Cosmos 192 4.4 20:51:14 10° SSW 20:56:12 80° WNW 21:01:12 10° NNE
H-2A R/B 4.1 20:57:31 15° NE 20:57:31 15° NE 20:59:05 10° NNE
NOSS 3-2 (A) 3.5 20:50:48 10° SW 20:56:55 86° NW 21:03:37 10° NE
Cosmos 1420 Rocket 4.2 20:51:57 10° NNW 20:57:08 53° ENE 20:58:50 38° ESE
CZ-4B DEB 4.4 20:57:49 48° SSE 20:58:44 82° ENE 21:02:21 10° N
Cosmos 1953 2.3 20:55:09 10° S 20:59:08 80° W 21:03:09 10° N
CZ-4B DEB 3.5 20:57:57 21° S 20:59:54 53° W 21:03:07 10° NNW
CZ-2D R/B 3.5 21:01:17 23° S 21:03:35 71° W 21:07:29 10° NNW
Cosmos 1269 Rocket 4.1 21:03:13 10° S 21:08:20 52° ESE 21:13:28 10° NNE
BREEZE-M DEB (TANK) 3.5 20:58:20 10° W 21:11:10 73° N 21:12:53 41° ENE
ATLAS 5 CENTAUR R/B 1.7 21:06:49 10° SSW 21:11:36 80° ESE 21:16:20 12° NE
SL-16 R/B 3.1 21:08:00 10° SW 21:13:31 50° WNW 21:19:04 10° NNE
Cosmos 724 4.2 21:07:41 10° SSW 21:13:32 66° ESE 21:19:34 10° NE
Cosmos 1048 Rocket 4.3 21:12:30 10° S 21:18:34 48° ENE 21:22:48 10° NNE
Cosmos-2242 3.7 21:16:07 10° SSW 21:20:21 54° W 21:24:41 10° N
Cosmos 1842 Rocket 3.8 21:23:00 54° NNE 21:23:00 54° NNE 21:26:28 10° NNE
Cosmos 1805 4.5 21:18:40 10° SSW 21:22:24 42° WNW 21:26:10 10° N
Resurs 01 Rocket 4.1 21:19:36 10° SW 21:22:58 21° W 21:26:22 10° NW
Cosmos 1500 Rocket 3.4 21:19:51 10° N 21:24:18 87° E 21:24:24 85° SE
H-2A R/B 4.1 21:23:13 22° SSW 21:25:16 39° W 21:28:57 10° NNW
Envisat 3.1 21:27:01 57° ENE 21:27:01 57° ENE 21:31:49 10° N
ALOS 3.9 21:27:08 10° SSW 21:31:20 33° W 21:35:34 10° NNW
NOSS 3-2 (C) 3.9 21:27:15 10° SW 21:33:19 65° NW 21:40:02 10° NNE
ASTEX 1 4.3 21:33:09 10° N 21:37:52 47° WNW 21:42:32 10° SSW
Cosmos 1655 Rocket 4.0 21:37:20 10° N 21:43:17 61° ENE 21:43:17 61° ENE
Cosmos 2151 4.3 21:39:50 10° N 21:42:10 32° N 21:42:10 32° N
GP-B 3.9 21:50:31 10° N 21:54:29 49° WNW 21:54:29 49° WNW
Cosmos 2369 Rocket 2.3 21:53:22 10° NNW 21:58:21 69° N 21:58:21 69° N
Cosmos 1603 4.4 21:54:48 10° SW 22:00:24 54° WNW 22:06:04 10° NNE
USA 215 4.4 21:58:34 12° NE 22:04:10 39° NNW 22:10:08 10° W
Cosmos 1634 Rocket 4.4 22:09:54 38° SW 22:12:14 60° W 22:18:24 10° N
ERS-1 Rocket 3.9 22:14:26 44° W 22:14:26 44° W 22:18:51 10° NNW
Cosmos 1943 Rocket 3.3 22:08:58 10° NNW 22:12:33 35° N 22:12:33 35° N
Cosmos 2026 Rocket 4.1 22:09:18 10° NNW 22:15:08 70° WNW 22:15:08 70° WNW
Exosat Rocket 4.4 22:09:48 10° NNW 22:16:17 88° WSW 22:16:54 78° S
SeaSat 1 4.4 22:18:24 10° N 22:22:32 28° NW 22:26:40 10° WSW
Cosmos 839 Rocket 4.4 22:22:42 10° NW 22:29:59 67° W 22:29:59 67° W
H-2A R/B 4.4 22:34:40 21° NNW 22:34:40 21° NNW 22:36:16 10° NNW
H-2A R/B 4.4 22:55:26 17° N 22:55:26 17° N 22:56:36 10° N
ATLAS 5 CENTAUR R/B 4.2 22:53:10 10° W 22:56:59 21° NNW 22:58:05 20° NNW
